User: anonymous   Login
Location: Melbourne
(37.8666°S, 145.1333°E)
Time: 09:25:50
(UTC+10:00)
Language:

ATLAS CENTAUR R/B - Orbit

View from above orbital plane
View from above orbital plane
View from above satellite
View from above satellite

Ground track
Ground track

The orbit data is extracted from the following two-line orbital elements,

1 28385U 04034B   18141.90439915 0.00042000  00000-0  55181-3 0    04
2 28385  57.2950 164.1746 3384599 334.0637  25.9363  8.72801475    02
Epoch (UTC): 21 May 2018 21:42:20
Eccentricity: 0.3384599
inclination: 57.2950°
perigee height: 214 km
apogee height: 6959 km
right ascension of ascending node: 164.1746°
argument of perigee: 334.0637°
revolutions per day: 8.72801475
mean anomaly at epoch: 25.9363°
orbit number at epoch: 0

The dashed part of the orbit path shows where the satellite is in the earth's shadow,  

DLR